Tracking 29892 objects as of 21-Nov-2024
HD Live streaming from Space Station
objects crossing your sky now

COSMOS 2491 DEB

Track COSMOS 2491 DEB now!
10-day predictions


NORAD ID: 57560
Int'l Code: 2013-076AX
Perigee: 1,435.0 km
Apogee: 1,492.9 km
Inclination: 82.5 °
Period: 115.0 minutes
Semi major axis: 7834 km
RCS: Unknown
Launch date: December 25, 2013
Source: Commonwealth of Independent States (former USSR) (CIS)
Launch site: PLESETSK MISSILE AND SPACE COMPLEX (PKMTR)

Note: This is SATELLITE DEBRIS
Your satellite tracking list
Your tracking list is empty




NASA's NSSDC Master Catalog

Two Line Element Set (TLE):
1 57560U 13076AX  24323.26977237  .00003338  00000-0  21324-1 0  9997
2 57560  82.4827 160.7126 0036930 245.6928 114.0298 12.51841348 70016
Source of the keplerian elements: AFSPC